www.pogodaiklimat.ru

Погода и климат >> Архив погоды >> Россия >> Краснодарский край >> Кропоткин


ПОГОДА в Кропоткине

  • Прогноз погоды в Кропоткине
  • Монитор погоды в Кропоткине

АРХИВ ПОГОДЫ в Кропоткине

Время (UTC), дата Ветер
(напр.,м/с)
 
Видим.   Явления Облачность Т
(С)
Тd
(С)
f
(%)
Тe
(С)
Тes
(С)
Комфортность P
(гПа)
Po
(гПа)
Тmin
(С)
Tmax
(С)
R
(мм)
R24
(мм)
S
(см)
15 11.04 ЮЗ 5-10
{11}
20 км {гроза} 10/6 600 м
[Cb cap Cs]
+15.8 +7.0 56 +15 +15 1011.6 999.0 +23.2
18 11.04 ЮВ 2
{10}
20 км {гроза} 10/6 600 м
[Cb cap Cs]
+14.7 +6.4 57 +15 +15 1013.0 1000.4
21 11.04 Ю 1 20 км ясно +12.0 +8.3 78 +12 +12 1012.9 1000.2
00 12.04 штиль 0 20 км 4/4 600 м
[Sc]
+11.3 +7.9 80 +11 +11 1012.1 999.4
03 12.04 ЮЗ 1 20 км 3/0
[Ac cast]
+10.6 +7.6 82 +10 +10 1013.2 1000.4 +10.6
06 12.04 З 3 20 км 8/0
[Ac trans Ci]
+15.3 +8.0 62 +15 +19 1013.6 1001.0
09 12.04 З 4 20 км 10/8 600 м
[Cb cap Cs]
+17.3 +7.1 51 +17 +19 1014.1 1001.6
12 12.04 З 3 20 км 10/6 1000 м
[Cu med, cong Ac cuf Cs]
+19.3 +8.1 48 +20 +22 1013.6 1001.2
15 12.04 З 4
{10}
20 км 6/1 600 м
[Cu hum Ac trans]
+16.5 +7.3 54 +16 +16 1014.1 1001.5 +19.5
18 12.04 ЮЗ 2 20 км 3/0
[Ac trans]
+13.4 +6.9 65 +13 +13 1015.5 1002.9
21 12.04 СЗ 1 20 км ясно +9.7 +6.1 78 +9 +9 1015.6 1002.7
00 13.04 ЮЗ 2 20 км слаб. ливневой дождь 6/6 600 м
[Cb cap]
+10.9 +7.6 80 +10 +10 1016.2 1003.4
03 13.04 ЮЗ 1 20 км {ливн. осадки} 8/8 600 м
[Sc diur, vesp]
+10.2 +8.8 91 +10 +10 1016.0 1003.2 +9.3 2
06 13.04 Ю 2 20 км {ливн. осадки} 10/10 600 м
[Cb cap]
+11.8 +9.9 88 +11 +11 1016.7 1004.0
09 13.04 ЮЗ 2 20 км {ливн. осадки} 10/10 600 м
[Cb cap]
+14.4 +9.4 72 +14 +14 1016.2 1003.6
12 13.04 З 2 10 км слаб. ливневой дождь 10/10 600 м
[Cb cap]
+14.6 +10.6 77 +14 +14 1016.4 1003.7
15 13.04 З 1 20 км {ливн. осадки} 10/8 600 м
[Cb cap Ac As]
+13.0 +10.4 84 +13 +13 1016.4 1003.7 +16.1 1
18 13.04 ЮЗ 1 20 км {ливн. осадки} 10/8 600 м
[Sc Ac cuf Ci]
+12.1 +10.2 88 +12 +12 1017.0 1004.2
21 13.04 Ю 1 20 км 3/0
[Ci fib]
+10.4 +9.0 91 +10 +10 1016.6 1003.8
00 14.04 ЮВ 1 10 км 8/0
[Cc]
+9.2 +8.1 93 +8 +8 1015.5 1002.6
03 14.04 В 1 20 км 10/10 600 м
[Cb cap]
+9.0 +7.8 92 +8 +8 1014.3 1001.4 +8.8 0.3
06 14.04 В 2 20 км 10/3 600 м
[Sc Ac trans Ci fib]
+15.6 +9.2 66 +16 +18 1013.3 1000.7
09 14.04 ЮВ 3 20 км 10/3 600 м
[Cu med, cong Ac cuf Cs]
+18.5 +9.1 54 +19 +23 1012.4 1000.0
12 14.04 В 4 20 км в посл. час ливневой дождь 10/8 600 м
[Cb cap Ac cuf]
+18.8 +7.7 48 +19 +20 1010.5 998.1
15 14.04 СВ 3 20 км 10/6 600 м
[Cb cap Ac As]
+18.1 +10.0 59 +18 +18 1009.0 996.6 +19.5
18 14.04 СВ 3 20 км 10/3 600 м
[Cb cap Ac cuf Cs]
+15.4 +10.2 71 +15 +15 1008.5 996.0
21 14.04 В 2 20 км 10/3 600 м
[Sc Ac trans Cs]
+14.5 +10.8 78 +14 +14 1007.3 994.8
00 15.04 В 2 20 км 10/5 600 м
[Cb cap Ac As]
+13.1 +9.9 81 +12 +12 1007.3 994.7
03 15.04 ЮВ 2 20 км в посл. час ливневой дождь 10/8 600 м
[Cb cap Ac cuf]
+12.6 +10.5 87 +12 +12 1008.9 996.3 +12.3
06 15.04 З 3 20 км слаб. ливневой дождь 10/6 600 м
[Cb cap Ac und]
+12.5 +10.3 86 +11 +12 1010.9 998.3 +12.0
09 15.04 З 3 20 км {ливн. осадки} 10/4 600 м
[Sc diur, vesp Cs]
+16.0 +9.4 65 +16 +22 1012.6 1000.1
12 15.04 З 2 20 км {ливн. осадки} 6/3 600 м
[Cu med, cong Ci fib]
+20.1 +9.7 51 +22 +28 комфорт 1012.2 999.8
15 15.04 З 2 20 км 3/3 600 м
[Cu med, cong]
+17.2 +7.3 52 +18 +18 1012.7 1000.2 +20.1 4
18 15.04 СЗ 1 20 км 8/0
[Cs]
+12.5 +8.2 75 +13 +13 1013.0 1000.3
21 15.04 С 1 20 км 8/8 600 м
[Sc]
+12.4 +7.8 74 +12 +12 1013.2 1000.5
00 16.04 СЗ 3 10 км слаб. ливневой дождь 10/10 300 м
[Cb cap]
+10.4 +8.8 90 +8 +8 1012.9 1000.1
03 16.04 СЗ 2 10 км слаб. ливневой дождь 10/10 300 м
[Cb cap]
+9.8 +8.4 91 +8 +8 1014.0 1001.1 +9.8 3
06 16.04 СЗ 2 10 км слаб. ливневой дождь 10/10 300 м
[Cb cap]
+10.2 +9.0 92 +9 +9 1014.7 1001.9 +9.8
09 16.04 СЗ 2 20 км в посл. час ливневой дождь 8/8 600 м
[Cb cap]
+14.9 +10.4 74 +15 +18 1013.7 1001.1
12 16.04 З 2 20 км {ливн. осадки} 9/9 600 м
[Cb cap]
+14.9 +9.1 68 +15 +16 1012.9 1000.4
15 16.04 С 2 20 км 10/6 600 м
[Sc diur, vesp Ac cuf]
+13.7 +8.0 68 +13 +13 1013.2 1000.6 +17.1 10
18 16.04 СЗ 1 20 км 9/0
[Ac cuf]
+11.2 +8.3 82 +11 +11 1013.6 1000.9
21 16.04 З 2 20 км 8/8 600 м
[Sc]
+9.2 +7.8 91 +7 +7 1013.0 1000.1
00 17.04 СЗ 2 20 км 10/10 600 м
[Sc]
+8.9 +7.1 88 +7 +7 1011.9 999.0
03 17.04 З 2 10 км 10/10 300 м
[St]
+8.9 +7.3 90 +7 +7 1011.0 998.2 +8.6
06 17.04 З 2 500 м туман ?/? +10.0 +8.8 92 +8 +8 1010.9 998.2
09 17.04 СВ 5-10
{10}
10 км слаб. дождь {туман} 10/10 300 м
[Frnb Ns]
+10.8 +9.2 90 +8 +8 1011.0 998.2
12 17.04 СВ 5-10
{11}
20 км {дождь, туман} 10/10 600 м
[Cb cap]
+8.0 +5.7 85 +4 +4 1013.3 1000.4
15 17.04 СВ 5-11
{13}
20 км в посл. час ливневой дождь 10/10 600 м
[Cb cap]
+6.3 +3.7 83 +2 +2 1015.8 1002.8 +11.2 2
18 17.04 СВ 5-10
{14}
20 км {ливн. осадки} 10/10 600 м
[Cb cap]
+5.1 +2.6 84 +1 +1 1018.1 1005.0
21 17.04 СВ 5
{11}
20 км 10/8 600 м
[Cb cap Ac cuf]
+4.5 +2.2 85 -0 -0 1019.5 1006.4
00 18.04 СВ 6-10
{12}
20 км {ливн. осадки} 10/10 600 м
[Cb cap]
+2.1 -0.6 82 -4 -4 1020.5 1007.2
03 18.04 В 5
{11}
20 км 10/10 600 м
[Cb cap]
+1.5 -1.0 83 -4 -4 1021.3 1008.0 +1.4 0.3
06 18.04 СВ 4
{11}
10 км слаб. ливневой снег 10/10 300 м
[Cb cap]
+2.0 -0.5 83 -3 -3 1022.5 1009.2
09 18.04 СВ 4
{10}
20 км {ливн. осадки} 10/5 600 м
[Cb cap Ac As]
+5.9 -1.2 60 +2 +4 1022.8 1009.6
12 18.04 В 4
{11}
20 км {ливн. осадки} 10/4 600 м
[Cb cap Ac As]
+8.2 -0.8 53 +5 +7 1022.6 1009.6

 

Местоположение метеостанции Кропоткин (Краснодарский край, Россия): широта 45.43 долгота 40.57 высота над уровнем моря 106 м.

В архиве по умолчанию представлена погода в Кропоткине за последнюю неделю. Архивные данные за месяц целиком и за предыдущие месяцы, начиная с января 2011 года, Вы можете получить, выбрав интересующий диапазон дат из раскрывающегося списка и нажав кнопку "Ввод!".


*Определитесь, кто Вы:
робот инопланетянин человек

Внимание! Время в таблицах - всемирное. Для получения местного времени необходимо прибавить поправку, которая равна 3 ч.

Смотрите также архив погоды в соседних городах и на ближайших метеорологических станциях:

Погода в Новоалександровске (Ставропольский край, Россия) (50 км)
Погода в Тихорецке (Краснодарский край, Россия) (60 км)
Погода в Дондуковской (Адыгея, Россия) (66 км)
Погода в Армавире (Краснодарский край, Россия) (66 км)
Погода в Усть-Лабинске (Краснодарский край, Россия) (69 км)
Погода в Белой Глине (Краснодарский край, Россия) (76 км)
Погода в Красногвардейском (Ставропольский край, Россия) (84 км)
Погода в Кореновске (Краснодарский край, Россия) (85 км)
Погода в Лабинске (Краснодарский край, Россия) (86 км)
Погода в Даховской (Адыгея, Россия) (86 км)

Пояснения к столбцам:

Ветер - указаны скорость ветра в м/с - средняя за 10 мин, порывы в срок и между сроками (в фигурных скобках) и направление, откуда дует ветер: С - северный, СВ - северо-восточный, В - восточный, ЮВ - юго-восточный, Ю - южный, ЮЗ - юго-западный, З - западный, СЗ - северо-западный.
Видимость - горизонтальная дальность видимости в метрах или километрах. При видимости от 1 до 10 км при отсутствии осадков обычно наблюдается дымка, при ухудшении видимости до 1 км и менее - туман. В сухую погоду видимость может ухудшаться дымом, пылью или мглою.
Явления - указаны атмосферные явления, наблюдавшиеся в срок или в последний час перед сроком; фигурными скобками обозначены явления, наблюдавшиеся между сроками (за 1-3 часа до срока); квадратными скобками обозначены град или гололедные отложения с указанием их диаметра в мм.
Облачность - указаны через наклонную черту общая и нижняя облачность в баллах и высота нижней границы облаков в метрах; квадратными скобками обозначены формы облаков: Ci - перистые, Cs - перисто-слоистые, Cc - перисто-кучевые, Ac - высококучевые, As - высокослоистые, Sc - слоисто-кучевые, Ns - слоисто-дождевые, Cu - кучевые, Cb - кучево-дождевые. Подробнее классификацию облаков см. в Атласе облаков (PDF).
T - Температура воздуха - температура, измеренная на высоте 2 м над землей.
Td - Температура точки росы - температура, при понижении до которой содержащийся в воздухе водяной пар достигнет насыщения.
f - Относительная влажность воздуха - влажноcть воздуха, измеренная на высоте 2 м над землей.
Te - Эффективная температура - температура, которую ощущает одетый по сезону человек в тени. Характеристика душности погоды. При расчете учитывается влияние влажности воздуха и скорости ветра на теплоощущения человека.
Tes - Эффективная температура на солнце - температура, которую ощущает человек, с поправкой на солнечный нагрев. Характеристика знойности погоды. Зависит от высоты солнца над горизонтом, облачности и скорости ветра. Ночью, в пасмурную погоду, а также при ветре 12 м/с и более поправка равна нулю.
P - Атмосферное давление - приведенное к уровню моря атмосферное давление.
Po - Атмосферное давление - измеренное на уровне метеостанции атмосферное давление.
Tmin - Минимальная температура - минимум температуры воздуха на высоте 2 м над землей.
Tmax - Максимальная температура - максимум температуры воздуха на высоте 2 м над землей.
R - Количество осадков - Количество выпавших осадков за период времени, мм. При наведении курсора мыши на число - период времени, за который выпало указанное количество осадков.
R24 - Количество осадков - Количество выпавших осадков за 24 часа, мм.
S - Снежный покров - Высота снежного покрова, см. При наведении курсора мыши на число - состояние снежного покрова и степень покрытия местности в баллах.